K5TWC Weather Reports


Display with metric or nautical units.
time (UTC)temp
F
wind
direction
speed
MPH
gust
MPH
rain 1hr
in
rain 24hr
in
rain mn
in
humidity
%
barometer
mb
20260905030506 89 167 0.0 3.0 0.00 0.00 0.00 62 1013.7
20260905030012 89 167 0.0 3.0 0.00 0.00 0.00 62 1013.6
20260905025507 89 167 0.0 0.0 0.00 0.00 0.00 62 1013.6
20260905025007 89 167 0.0 0.0 0.00 0.00 0.00 61 1013.5
20260905024515 89 167 0.0 1.0 0.00 0.00 0.00 61 1013.5
20260905024007 89 167 0.0 4.0 0.00 0.00 0.00 61 1013.5
20260905023506 90 167 0.0 4.0 0.00 0.00 0.00 60 1013.4
20260905023016 90 167 0.0 4.0 0.00 0.00 0.00 61 1013.3
20260905022506 90 164 0.0 4.0 0.00 0.00 0.00 60 1013.2
20260905022003 90 155 0.0 4.0 0.00 0.00 0.00 59 1013.2
20260905021510 90 156 0.0 5.0 0.00 0.00 0.00 59 1013.2
20260905021004 90 141 0.0 7.0 0.00 0.00 0.00 59 1013.1
20260905020502 91 167 0.0 7.0 0.00 0.00 0.00 59 1012.9
20260905020013 91 167 0.0 4.0 0.00 0.00 0.00 59 1012.9
20260905015504 91 163 0.0 5.0 0.00 0.00 0.00 59 1012.9
20260905015009 91 163 0.0 5.0 0.00 0.00 0.00 59 1012.8
20260905014515 91 166 0.0 6.0 0.00 0.00 0.00 59 1012.8
20260905014009 91 167 0.0 6.0 0.00 0.00 0.00 58 1012.7
20260905013512 92 168 0.0 7.0 0.00 0.00 0.00 58 1012.7
20260905013018 92 169 0.0 7.0 0.00 0.00 0.00 57 1012.5
20260905012508 92 157 1.0 7.0 0.00 0.00 0.00 57 1012.5
20260905012009 92 170 1.0 6.0 0.00 0.00 0.00 57 1012.5
20260905011517 92 175 0.0 6.0 0.00 0.00 0.00 56 1012.4
20260905011004 92 155 0.0 9.0 0.00 0.00 0.00 56 1012.3
20260905010503 93 155 1.0 10.0 0.00 0.00 0.00 55 1012.3
20260905010008 93 180 0.0 10.0 0.00 0.00 0.00 55 1012.3
20260905005503 93 174 1.0 8.0 0.00 0.00 0.00 56 1012.2
20260905005005 94 155 1.0 8.0 0.00 0.00 0.00 56 1012.2
20260905004515 94 163 0.0 9.0 0.00 0.00 0.00 56 1012.2
20260905004007 94 153 1.0 9.0 0.00 0.00 0.00 54 1012.1
20260905003509 94 160 2.0 9.0 0.00 0.00 0.00 54 1012.1
20260905003023 95 162 2.0 9.0 0.00 0.00 0.00 53 1012.1
20260905002508 95 144 3.0 9.0 0.00 0.00 0.00 53 1012.0
20260905002006 96 196 2.0 9.0 0.00 0.00 0.00 52 1011.9
20260905001518 96 146 2.0 9.0 0.00 0.00 0.00 50 1011.9
20260905001010 96 169 0.0 9.0 0.00 0.00 0.00 49 1011.8
20260905000508 97 150 1.0 9.0 0.00 0.00 0.00 48 1011.9
20260905000016 97 177 1.0 7.0 0.00 0.00 0.00 48 1011.8
20260904235503 97 189 0.0 9.0 0.00 0.00 0.00 47 1011.8
20260904235003 97 157 2.0 9.0 0.00 0.00 0.00 46 1011.8
20260904234509 97 172 0.0 9.0 0.00 0.00 0.00 46 1011.9
20260904234006 98 150 0.0 9.0 0.00 0.00 0.00 46 1011.8
20260904233503 98 151 2.0 9.0 0.00 0.00 0.00 46 1011.8
20260904233014 98 155 1.0 10.0 0.00 0.00 0.00 46 1011.7
20260904232508 98 166 1.0 10.0 0.00 0.00 0.00 46 1011.7
20260904232008 98 151 3.0 10.0 0.00 0.00 0.00 45 1011.7
20260904231520 98 150 3.0 10.0 0.00 0.00 0.00 46 1011.8
20260904231007 98 137 3.0 10.0 0.00 0.00 0.00 47 1011.8
20260904230510 98 136 1.0 8.0 0.00 0.00 0.00 47 1011.8
20260904230024 98 128 2.0 8.0 0.00 0.00 0.00 47 1011.8
20260904225508 98 165 2.0 9.0 0.00 0.00 0.00 47 1011.8
20260904225012 98 156 3.0 9.0 0.00 0.00 0.00 47 1011.9
20260904224524 98 156 1.0 7.0 0.00 0.00 0.00 46 1011.9
20260904224004 98 163 1.0 10.0 0.00 0.00 0.00 46 1011.9
20260904223504 98 164 3.0 10.0 0.00 0.00 0.00 47 1011.9
20260904223012 98 162 2.0 10.0 0.00 0.00 0.00 48 1012.0
20260904222506 97 133 3.0 10.0 0.00 0.00 0.00 48 1012.1
20260904222008 97 98 2.0 9.0 0.00 0.00 0.00 49 1012.0
20260904221534 97 138 2.0 9.0 0.00 0.00 0.00 49 1012.0
20260904221008 98 153 2.0 10.0 0.00 0.00 0.00 48 1012.0
20260904220511 98 150 3.0 10.0 0.00 0.00 0.00 48 1012.0
20260904220022 99 151 3.0 10.0 0.00 0.00 0.00 48 1012.1
20260904215511 99 187 4.0 10.0 0.00 0.00 0.00 47 1012.1
20260904215009 99 198 4.0 10.0 0.00 0.00 0.00 48 1012.2
20260904214525 99 142 3.0 10.0 0.00 0.00 0.00 47 1012.2
20260904214014 99 169 2.0 10.0 0.00 0.00 0.00 48 1012.2
20260904213510 99 183 1.0 11.0 0.00 0.00 0.00 49 1012.2
20260904213023 99 161 1.0 11.0 0.00 0.00 0.00 48 1012.2
20260904212505 99 109 2.0 10.0 0.00 0.00 0.00 48 1012.3
20260904212004 99 188 1.0 7.0 0.00 0.00 0.00 48 1012.3
20260904211512 100 155 2.0 9.0 0.00 0.00 0.00 48 1012.4
20260904211006 99 124 0.0 10.0 0.00 0.00 0.00 48 1012.4
20260904210508 100 173 2.0 11.0 0.00 0.00 0.00 48 1012.6
20260904210023 100 123 4.0 11.0 0.00 0.00 0.00 47 1012.5
20260904205510 100 199 0.0 13.0 0.00 0.00 0.00 47 1012.6
20260904205012 99 166 2.0 13.0 0.00 0.00 0.00 48 1012.7
20260904204528 99 158 3.0 9.0 0.00 0.00 0.00 48 1012.7
20260904204011 99 231 2.0 9.0 0.00 0.00 0.00 48 1012.7
20260904203510 99 141 3.0 11.0 0.00 0.00 0.00 48 1012.9
20260904203031 99 159 0.0 11.0 0.00 0.00 0.00 48 1013.0
20260904202503 99 193 0.0 11.0 0.00 0.00 0.00 48 1013.0
20260904202004 99 163 3.0 11.0 0.00 0.00 0.00 47 1013.1
20260904201520 99 258 2.0 11.0 0.00 0.00 0.00 48 1013.2
20260904201005 99 172 4.0 11.0 0.00 0.00 0.00 47 1013.3
20260904200507 100 151 6.0 11.0 0.00 0.00 0.00 47 1013.4
20260904200018 100 231 3.0 9.0 0.00 0.00 0.00 47 1013.4
20260904195507 99 140 1.0 9.0 0.00 0.00 0.00 47 1013.5
20260904195008 99 136 1.0 9.0 0.00 0.00 0.00 47 1013.5
20260904194552 99 144 1.0 9.0 0.00 0.00 0.00 48 1013.7
20260904194012 98 139 2.0 9.0 0.00 0.00 0.00 48 1013.7
20260904193512 98 141 1.0 10.0 0.00 0.00 0.00 49 1013.8
20260904193037 98 144 3.0 10.0 0.00 0.00 0.00 50 1013.8
20260904192502 98 153 4.0 10.0 0.00 0.00 0.00 50 1013.8
20260904192005 98 169 3.0 10.0 0.00 0.00 0.00 49 1013.9
20260904191507 98 284 1.0 9.0 0.00 0.00 0.00 50 1013.9
20260904191003 97 194 3.0 10.0 0.00 0.00 0.00 50 1013.9
20260904190503 97 203 3.0 12.0 0.00 0.00 0.00 51 1014.0
20260904190011 98 159 4.0 12.0 0.00 0.00 0.00 50 1014.0
20260904185506 98 155 3.0 12.0 0.00 0.00 0.00 49 1014.1
20260904185008 97 164 0.0 11.0 0.00 0.00 0.00 50 1014.2
20260904184521 97 202 0.0 11.0 0.00 0.00 0.00 52 1014.2
20260904184009 97 193 4.0 10.0 0.00 0.00 0.00 51 1014.2
20260904183510 97 168 1.0 9.0 0.00 0.00 0.00 53 1014.4
20260904183023 96 195 0.0 10.0 0.00 0.00 0.00 54 1014.5
20260904182513 96 147 3.0 10.0 0.00 0.00 0.00 53 1014.6
20260904182016 96 157 0.0 12.0 0.00 0.00 0.00 54 1014.7
20260904181527 95 184 0.0 12.0 0.00 0.00 0.00 54 1014.8
20260904181003 95 184 2.0 13.0 0.00 0.00 0.00 55 1014.9
20260904180503 95 128 5.0 13.0 0.00 0.00 0.00 55 1015.0
20260904180008 95 159 1.0 10.0 0.00 0.00 0.00 55 1015.1
20260904175503 95 123 3.0 10.0 0.00 0.00 0.00 55 1015.1
20260904175003 95 138 2.0 9.0 0.00 0.00 0.00 55 1015.1
20260904174516 96 152 3.0 9.0 0.00 0.00 0.00 55 1015.2
20260904174007 95 161 3.0 10.0 0.00 0.00 0.00 55 1015.2
20260904173509 95 112 4.0 11.0 0.00 0.00 0.00 55 1015.3
20260904173027 95 150 3.0 11.0 0.00 0.00 0.00 56 1015.4
20260904172511 94 178 2.0 9.0 0.00 0.00 0.00 59 1015.5
20260904172012 94 153 2.0 9.0 0.00 0.00 0.00 60 1015.5
20260904171538 93 143 3.0 10.0 0.00 0.00 0.00 60 1015.6
20260904171011 93 189 3.0 12.0 0.00 0.00 0.00 60 1015.6
20260904170513 93 146 6.0 12.0 0.00 0.00 0.00 62 1015.6
20260904170031 92 161 2.0 11.0 0.00 0.00 0.00 62 1015.6
20260904165505 92 145 6.0 11.0 0.00 0.00 0.00 63 1015.6
20260904165004 92 138 3.0 10.0 0.00 0.00 0.00 64 1015.6
20260904164510 92 140 4.0 11.0 0.00 0.00 0.00 64 1015.7
20260904164003 92 165 4.0 11.0 0.00 0.00 0.00 65 1015.7
20260904163504 92 155 4.0 11.0 0.00 0.00 0.00 65 1015.8
20260904163015 93 164 4.0 10.0 0.00 0.00 0.00 64 1015.8
20260904162506 93 206 2.0 12.0 0.00 0.00 0.00 64 1015.8
20260904162012 93 143 5.0 12.0 0.00 0.00 0.00 64 1015.7
20260904161527 92 126 0.0 8.0 0.00 0.00 0.00 66 1015.7
20260904161011 91 194 0.0 10.0 0.00 0.00 0.00 67 1015.8
20260904160510 91 186 0.0 10.0 0.00 0.00 0.00 67 1015.8
20260904160030 91 192 1.0 9.0 0.00 0.00 0.00 69 1015.8
20260904155512 91 209 1.0 9.0 0.00 0.00 0.00 69 1015.9
20260904155014 90 182 2.0 12.0 0.00 0.00 0.00 71 1015.8
20260904154530 90 138 1.0 12.0 0.00 0.00 0.00 71 1015.8
20260904154003 90 184 1.0 8.0 0.00 0.00 0.00 70 1015.8
20260904153503 90 178 1.0 5.0 0.00 0.00 0.00 70 1015.8
20260904153021 90 198 0.0 9.0 0.00 0.00 0.00 69 1015.6
20260904152503 90 153 3.0 9.0 0.00 0.00 0.00 69 1015.6
20260904152008 90 196 1.0 8.0 0.00 0.00 0.00 70 1015.6
20260904151533 89 205 1.0 8.0 0.00 0.00 0.00 70 1015.5
20260904151010 89 187 0.0 8.0 0.00 0.00 0.00 72 1015.5
20260904150512 89 171 0.0 6.0 0.00 0.00 0.00 73 1015.5
20260904150028 88 165 1.0 10.0 0.00 0.00 0.00 74 1015.5
20260904145513 88 127 0.0 10.0 0.00 0.00 0.00 76 1015.5
20260904145012 87 158 2.0 10.0 0.00 0.00 0.00 76 1015.5
20260904144526 87 150 1.0 8.0 0.00 0.00 0.00 77 1015.5
20260904144014 87 181 1.0 8.0 0.00 0.00 0.00 77 1015.5
20260904143515 87 207 2.0 5.0 0.00 0.00 0.00 78 1015.5
20260904143033 86 196 0.0 5.0 0.00 0.00 0.00 79 1015.6
20260904142503 86 238 0.0 8.0 0.00 0.00 0.00 80 1015.6
20260904142005 85 185 1.0 8.0 0.00 0.00 0.00 80 1015.5
20260904141515 85 190 1.0 7.0 0.00 0.00 0.00 81 1015.5
20260904141010 84 204 0.0 10.0 0.00 0.00 0.00 83 1015.5
20260904140509 84 157 1.0 10.0 0.00 0.00 0.00 84 1015.5
20260904140023 83 152 1.0 10.0 0.00 0.00 0.00 84 1015.5
20260904135515 83 184 2.0 10.0 0.00 0.00 0.00 85 1015.5
20260904135011 82 191 2.0 9.0 0.00 0.00 0.00 86 1015.4
20260904134526 82 160 3.0 9.0 0.00 0.00 0.00 87 1015.3
20260904134011 81 194 3.0 9.0 0.00 0.00 0.00 88 1015.3
20260904133515 80 173 1.0 9.0 0.00 0.00 0.00 89 1015.3
20260904133030 80 194 1.0 9.0 0.00 0.00 0.00 90 1015.3
20260904132516 79 167 2.0 9.0 0.00 0.00 0.00 90 1015.2
20260904132014 79 169 3.0 9.0 0.00 0.00 0.00 90 1015.2
20260904131531 79 189 3.0 8.0 0.00 0.00 0.00 91 1015.1
20260904131004 79 203 2.0 8.0 0.00 0.00 0.00 91 1015.1
20260904130506 79 147 1.0 8.0 0.00 0.00 0.00 91 1015.1
20260904130016 79 166 1.0 9.0 0.00 0.00 0.00 91 1015.0
20260904125508 78 188 1.0 9.0 0.00 0.00 0.00 91 1015.0
20260904125010 78 165 2.0 10.0 0.00 0.00 0.00 91 1014.9
20260904124524 78 157 0.0 10.0 0.00 0.00 0.00 91 1015.0
20260904124010 78 168 1.0 9.0 0.00 0.00 0.00 92 1015.0
20260904123515 78 147 2.0 7.0 0.00 0.00 0.00 92 1014.9
20260904123027 78 182 0.0 7.0 0.00 0.00 0.00 92 1014.9
20260904122518 78 152 0.0 7.0 0.00 0.00 0.00 92 1014.9
20260904122015 78 182 0.0 7.0 0.00 0.01 0.00 92 1014.9
20260904121535 78 192 2.0 10.0 0.00 0.01 0.00 92 1014.9
20260904121016 78 186 1.0 10.0 0.00 0.01 0.00 92 1014.9
20260904120518 78 189 0.0 4.0 0.00 0.02 0.00 92 1014.9
20260904120037 78 188 0.0 6.0 0.00 0.03 0.00 92 1014.8
20260904115507 78 169 0.0 6.0 0.00 0.04 0.00 92 1014.8
20260904115006 78 172 1.0 6.0 0.00 0.04 0.00 92 1014.7
20260904114520 77 167 0.0 6.0 0.00 0.04 0.00 91 1014.6
20260904114013 77 180 0.0 6.0 0.00 0.04 0.00 91 1014.5
20260904113512 77 188 1.0 10.0 0.00 0.04 0.00 91 1014.6
20260904113033 77 205 2.0 10.0 0.00 0.04 0.00 91 1014.5
20260904112517 77 182 0.0 8.0 0.00 0.04 0.00 91 1014.5
20260904112013 77 173 0.0 6.0 0.00 0.04 0.00 91 1014.4
20260904111529 77 159 0.0 6.0 0.00 0.04 0.00 91 1014.4
20260904111022 77 173 0.0 6.0 0.00 0.04 0.00 90 1014.3
20260904110516 77 186 0.0 7.0 0.00 0.04 0.00 90 1014.3
20260904110031 77 169 1.0 7.0 0.00 0.04 0.00 90 1014.3
20260904105517 77 184 0.0 7.0 0.00 0.04 0.00 90 1014.3
20260904105014 77 180 2.0 7.0 0.00 0.04 0.00 90 1014.3
20260904104531 77 157 2.0 6.0 0.00 0.04 0.00 89 1014.2
20260904104007 77 152 0.0 6.0 0.00 0.04 0.00 89 1014.2
20260904103510 77 159 0.0 6.0 0.00 0.04 0.00 89 1014.2
20260904103023 77 160 0.0 6.0 0.00 0.04 0.00 89 1014.2
20260904102510 77 162 0.0 6.0 0.00 0.04 0.00 89 1014.2
20260904102003 78 180 0.0 6.0 0.00 0.04 0.00 88 1014.1
20260904101503 78 177 0.0 5.0 0.00 0.04 0.00 88 1014.0
20260904101003 78 184 1.0 5.0 0.00 0.04 0.00 88 1014.0
20260904100503 78 166 0.0 5.0 0.00 0.04 0.00 88 1014.0
20260904100009 78 167 1.0 5.0 0.00 0.04 0.00 87 1014.0
20260904095503 78 176 0.0 3.0 0.00 0.04 0.00 87 1014.0
20260904095004 78 177 0.0 5.0 0.00 0.04 0.00 87 1014.0
20260904094512 78 169 0.0 6.0 0.00 0.04 0.00 87 1014.0
20260904094004 78 169 0.0 6.0 0.00 0.04 0.00 87 1014.0
20260904093510 78 186 0.0 3.0 0.00 0.04 0.00 86 1013.9
20260904093021 78 186 0.0 3.0 0.00 0.04 0.00 86 1014.0
20260904092512 78 196 0.0 3.0 0.00 0.04 0.00 86 1013.9
20260904092012 78 196 0.0 3.0 0.00 0.04 0.00 85 1014.0
20260904091524 78 196 0.0 1.0 0.00 0.04 0.00 85 1014.0
20260904091005 78 197 0.0 3.0 0.00 0.04 0.00 85 1014.0
20260904090503 78 196 0.0 3.0 0.00 0.04 0.00 85 1013.9
20260904090006 78 186 0.0 3.0 0.00 0.04 0.00 84 1013.9
20260904085504 79 186 0.0 7.0 0.00 0.04 0.00 84 1013.9
20260904085007 79 179 0.0 7.0 0.00 0.04 0.00 84 1013.9
20260904084508 79 197 0.0 8.0 0.00 0.04 0.00 84 1013.9
20260904084003 79 144 2.0 8.0 0.00 0.04 0.00 85 1013.8
20260904083505 79 188 0.0 5.0 0.00 0.04 0.00 85 1013.8
20260904083019 79 161 0.0 5.0 0.00 0.04 0.00 84 1013.8
20260904082507 78 200 0.0 4.0 0.00 0.04 0.00 84 1013.9
20260904082007 78 200 0.0 4.0 0.00 0.04 0.00 84 1013.8
20260904081522 78 200 0.0 3.0 0.00 0.04 0.00 83 1013.8
20260904081010 78 193 0.0 3.0 0.00 0.04 0.00 83 1013.8
20260904080511 78 191 0.0 3.0 0.00 0.04 0.00 83 1013.9
20260904080038 79 191 0.0 1.0 0.00 0.04 0.00 83 1014.0
20260904075503 79 191 0.0 1.0 0.00 0.04 0.00 83 1013.9
20260904075004 79 192 0.0 1.0 0.00 0.04 0.00 83 1013.8
20260904074514 79 191 0.0 2.0 0.00 0.04 0.00 83 1013.8
20260904074003 79 191 0.0 2.0 0.00 0.04 0.00 83 1013.7
20260904073508 79 192 0.0 3.0 0.00 0.04 0.00 82 1013.8
20260904073009 79 192 0.0 4.0 0.00 0.04 0.00 82 1013.7
20260904072507 79 193 0.0 6.0 0.00 0.04 0.00 82 1013.8
20260904072006 79 169 1.0 6.0 0.00 0.04 0.00 82 1013.8
20260904071515 79 203 0.0 6.0 0.00 0.04 0.00 82 1013.9
20260904071008 79 210 0.0 3.0 0.00 0.04 0.00 81 1013.9
20260904070511 79 206 0.0 5.0 0.00 0.04 0.00 81 1014.0
20260904070024 80 206 0.0 5.0 0.00 0.04 0.00 81 1014.1
20260904065512 80 218 0.0 6.0 0.00 0.04 0.00 81 1014.1
20260904065012 80 211 0.0 6.0 0.00 0.04 0.00 81 1014.0
20260904064527 80 234 0.0 4.0 0.00 0.04 0.00 80 1014.0
20260904064003 80 187 0.0 4.0 0.00 0.04 0.00 80 1014.0
20260904063504 80 209 0.0 6.0 0.00 0.04 0.00 80 1014.0
20260904063014 80 173 1.0 6.0 0.00 0.04 0.00 80 1014.1
20260904062504 80 191 1.0 4.0 0.00 0.04 0.00 80 1014.1
20260904062003 80 199 0.0 2.0 0.00 0.04 0.00 79 1014.1
20260904061520 80 202 0.0 6.0 0.00 0.04 0.00 79 1014.0
20260904061008 80 200 0.0 6.0 0.00 0.04 0.00 79 1014.0
20260904060509 80 200 0.0 3.0 0.00 0.04 0.00 78 1014.0
20260904060020 80 207 0.0 6.0 0.00 0.04 0.00 78 1014.0
20260904055508 80 214 0.0 6.0 0.00 0.04 0.00 78 1014.0
20260904055011 80 202 0.0 3.0 0.00 0.04 0.00 78 1014.0
20260904054524 80 206 0.0 3.0 0.00 0.04 0.00 77 1014.1
20260904054013 80 205 0.0 5.0 0.00 0.04 0.00 77 1014.0
20260904053513 80 209 0.0 6.0 0.00 0.04 0.00 77 1014.0
20260904053029 80 189 0.0 6.0 0.00 0.04 0.00 77 1013.9
20260904052504 80 185 1.0 6.0 0.00 0.04 0.00 77 1013.9
20260904052004 80 204 0.0 6.0 0.00 0.04 0.00 77 1013.9
20260904051525 81 182 0.0 5.0 0.00 0.04 0.00 77 1013.9
20260904051004 81 198 0.0 6.0 0.00 0.04 0.00 76 1013.9
20260904050505 81 169 0.0 7.0 0.00 0.04 0.00 75 1013.9
20260904050015 81 174 0.0 7.0 0.00 0.04 0.00 75 1013.9
20260904045509 81 211 1.0 7.0 0.00 0.04 0.04 74 1014.0
20260904045011 81 189 2.0 7.0 0.00 0.04 0.04 74 1014.0
20260904044534 81 138 0.0 8.0 0.00 0.04 0.04 73 1014.1
20260904044011 81 221 1.0 8.0 0.00 0.04 0.04 73 1014.0
20260904043515 81 140 2.0 8.0 0.00 0.04 0.04 73 1014.0
20260904043027 81 211 0.0 8.0 0.00 0.04 0.04 73 1014.1
20260904042513 81 211 0.0 8.0 0.00 0.04 0.04 73 1014.2
20260904042019 81 159 0.0 8.0 0.00 0.04 0.04 73 1014.2
20260904041537 81 188 1.0 5.0 0.00 0.04 0.04 73 1014.2
20260904041003 81 163 0.0 3.0 0.00 0.04 0.04 72 1014.2
20260904040505 81 213 0.0 3.0 0.00 0.04 0.04 72 1014.1
20260904040012 82 194 0.0 4.0 0.00 0.04 0.04 72 1014.1
20260904035504 82 166 0.0 6.0 0.00 0.04 0.04 72 1014.1
20260904035008 82 148 1.0 6.0 0.00 0.04 0.04 72 1014.1
20260904034520 82 198 0.0 5.0 0.00 0.04 0.04 72 1014.1
20260904034010 82 190 0.0 8.0 0.00 0.04 0.04 72 1014.0
20260904033512 82 199 1.0 8.0 0.00 0.04 0.04 72 1014.2
20260904033025 82 178 1.0 8.0 0.00 0.04 0.04 72 1014.2
20260904032511 82 186 1.0 9.0 0.00 0.04 0.04 72 1014.3
20260904032014 82 191 2.0 9.0 0.00 0.04 0.04 73 1014.3
20260904031529 82 211 2.0 9.0 0.00 0.04 0.04 72 1014.2
20260904031017 82 179 3.0 10.0 0.00 0.04 0.04 72 1014.1